Time,TemperatureF,DewpointF,PressureIn,WindDirection,WindDirectionDegrees,WindSpeedMPH,WindSpeedGustMPH,Humidity,HourlyPrecipIn,Conditions,Clouds,dailyrainin,SoftwareType,DateUTC
2013-03-05 00:01:00,26.0,20.0,-100.00,East,90,3.0,6.0,77,-99.99,,,-99.99,,2013-03-05 06:01:00,
2013-03-05 00:22:00,25.0,21.0,-100.00,ESE,110,6.0,12.0,86,-99.99,,,-99.99,,2013-03-05 06:22:00,
2013-03-05 00:32:00,25.0,21.0,-100.00,ESE,110,6.0,12.0,86,-99.99,,,-99.99,,2013-03-05 06:32:00,
2013-03-05 00:42:00,25.0,21.0,-100.00,ESE,110,6.0,12.0,86,-99.99,,,-99.99,,2013-03-05 06:42:00,
2013-03-05 00:52:00,25.0,21.0,-100.00,ESE,110,6.0,12.0,86,-99.99,,,-99.99,,2013-03-05 06:52:00,
2013-03-05 01:01:00,25.0,21.0,-100.00,ESE,110,6.0,12.0,86,-99.99,,,-99.99,,2013-03-05 07:01:00,
2013-03-05 01:02:00,24.0,23.0,-100.00,ESE,105,4.0,12.0,93,-99.99,,,-99.99,,2013-03-05 07:02:00,
2013-03-05 01:22:00,24.0,23.0,-100.00,ESE,105,4.0,12.0,93,-99.99,,,-99.99,,2013-03-05 07:22:00,
2013-03-05 01:32:00,24.0,23.0,-100.00,ESE,105,4.0,12.0,93,-99.99,,,-99.99,,2013-03-05 07:32:00,
2013-03-05 01:42:00,24.0,23.0,-100.00,ESE,105,4.0,12.0,93,-99.99,,,-99.99,,2013-03-05 07:42:00,
2013-03-05 01:52:00,24.0,23.0,-100.00,ESE,105,4.0,12.0,93,-99.99,,,-99.99,,2013-03-05 07:52:00,
2013-03-05 02:21:00,24.0,23.0,-100.00,ENE,65,4.0,11.0,94,-99.99,,,-99.99,,2013-03-05 08:21:00,
2013-03-05 02:32:00,24.0,23.0,-100.00,ENE,65,4.0,11.0,94,-99.99,,,-99.99,,2013-03-05 08:32:00,
2013-03-05 02:42:00,24.0,23.0,-100.00,ENE,65,4.0,11.0,94,-99.99,,,-99.99,,2013-03-05 08:42:00,
2013-03-05 02:52:00,24.0,23.0,-100.00,ENE,65,4.0,11.0,94,-99.99,,,-99.99,,2013-03-05 08:52:00,
2013-03-05 03:01:00,24.0,23.0,-100.00,ENE,65,4.0,11.0,94,-99.99,,,-99.99,,2013-03-05 09:01:00,
2013-03-05 03:21:00,24.0,22.0,-100.00,East,100,3.0,12.0,93,-99.99,,,-99.99,,2013-03-05 09:21:00,
2013-03-05 03:32:00,24.0,22.0,-100.00,East,100,3.0,12.0,93,-99.99,,,-99.99,,2013-03-05 09:32:00,
2013-03-05 03:43:00,24.0,22.0,-100.00,East,100,3.0,12.0,93,-99.99,,,-99.99,,2013-03-05 09:43:00,
2013-03-05 03:52:00,24.0,22.0,-100.00,East,100,3.0,12.0,93,-99.99,,,-99.99,,2013-03-05 09:52:00,
2013-03-05 04:01:00,24.0,22.0,-100.00,East,100,3.0,12.0,93,-99.99,,,-99.99,,2013-03-05 10:01:00,
2013-03-05 04:22:00,24.0,22.0,-100.00,ENE,60,1.0,6.0,93,-99.99,,,-99.99,,2013-03-05 10:22:00,
2013-03-05 04:32:00,24.0,22.0,-100.00,ENE,60,1.0,6.0,93,-99.99,,,-99.99,,2013-03-05 10:32:00,
2013-03-05 04:42:00,24.0,22.0,-100.00,ENE,60,1.0,6.0,93,-99.99,,,-99.99,,2013-03-05 10:42:00,
2013-03-05 04:52:00,24.0,22.0,-100.00,ENE,60,1.0,6.0,93,-99.99,,,-99.99,,2013-03-05 10:52:00,
2013-03-05 05:01:00,24.0,22.0,-100.00,ENE,60,1.0,6.0,93,-99.99,,,-99.99,,2013-03-05 11:01:00,
2013-03-05 05:22:00,23.0,22.0,-100.00,ENE,65,4.0,7.0,95,-99.99,,,-99.99,,2013-03-05 11:22:00,
2013-03-05 05:32:00,23.0,22.0,-100.00,ENE,65,4.0,7.0,95,-99.99,,,-99.99,,2013-03-05 11:32:00,
2013-03-05 05:42:00,23.0,22.0,-100.00,ENE,65,4.0,7.0,95,-99.99,,,-99.99,,2013-03-05 11:42:00,
2013-03-05 05:52:00,23.0,22.0,-100.00,ENE,65,4.0,7.0,95,-99.99,,,-99.99,,2013-03-05 11:52:00,
2013-03-05 06:02:00,23.0,22.0,-100.00,ENE,65,4.0,7.0,95,-99.99,,,-99.99,,2013-03-05 12:02:00,
2013-03-05 06:22:00,23.0,22.0,-100.00,NE,55,1.0,4.0,97,-99.99,,,-99.99,,2013-03-05 12:22:00,
2013-03-05 06:32:00,23.0,22.0,-100.00,NE,55,1.0,4.0,97,-99.99,,,-99.99,,2013-03-05 12:32:00,
2013-03-05 06:42:00,23.0,22.0,-100.00,NE,55,1.0,4.0,97,-99.99,,,-99.99,,2013-03-05 12:42:00,
2013-03-05 06:52:00,23.0,22.0,-100.00,NE,55,1.0,4.0,97,-99.99,,,-99.99,,2013-03-05 12:52:00,
2013-03-05 07:02:00,23.0,23.0,-100.00,ENE,65,2.0,6.0,98,-99.99,,,-99.99,,2013-03-05 13:02:00,
2013-03-05 07:22:00,23.0,23.0,-100.00,ENE,65,2.0,6.0,98,-99.99,,,-99.99,,2013-03-05 13:22:00,
2013-03-05 07:32:00,23.0,23.0,-100.00,ENE,65,2.0,6.0,98,-99.99,,,-99.99,,2013-03-05 13:32:00,
2013-03-05 07:42:00,23.0,23.0,-100.00,ENE,65,2.0,6.0,98,-99.99,,,-99.99,,2013-03-05 13:42:00,
2013-03-05 07:52:00,23.0,23.0,-100.00,ENE,65,2.0,6.0,98,-99.99,,,-99.99,,2013-03-05 13:52:00,
2013-03-05 08:22:00,24.0,23.0,-100.00,NE,50,4.0,7.0,98,-99.99,,,-99.99,,2013-03-05 14:22:00,
2013-03-05 08:32:00,24.0,23.0,-100.00,NE,50,4.0,7.0,98,-99.99,,,-99.99,,2013-03-05 14:32:00,
2013-03-05 08:42:00,24.0,23.0,-100.00,NE,50,4.0,7.0,98,-99.99,,,-99.99,,2013-03-05 14:42:00,
2013-03-05 08:52:00,24.0,23.0,-100.00,NE,50,4.0,7.0,98,-99.99,,,-99.99,,2013-03-05 14:52:00,
2013-03-05 09:01:00,24.0,23.0,-100.00,NE,50,4.0,7.0,98,-99.99,,,-99.99,,2013-03-05 15:01:00,
2013-03-05 09:22:00,24.0,24.0,-100.00,NE,45,4.0,10.0,97,-99.99,,,-99.99,,2013-03-05 15:22:00,
2013-03-05 09:32:00,24.0,24.0,-100.00,NE,45,4.0,10.0,97,-99.99,,,-99.99,,2013-03-05 15:32:00,
2013-03-05 09:42:00,24.0,24.0,-100.00,NE,45,4.0,10.0,97,-99.99,,,-99.99,,2013-03-05 15:42:00,
2013-03-05 09:52:00,24.0,24.0,-100.00,NE,45,4.0,10.0,97,-99.99,,,-99.99,,2013-03-05 15:52:00,
2013-03-05 10:01:00,24.0,24.0,-100.00,NE,45,4.0,10.0,97,-99.99,,,-99.99,,2013-03-05 16:01:00,
2013-03-05 10:22:00,25.0,24.0,-100.00,NE,40,4.0,9.0,97,-99.99,,,-99.99,,2013-03-05 16:22:00,
2013-03-05 10:32:00,25.0,24.0,-100.00,NE,40,4.0,9.0,97,-99.99,,,-99.99,,2013-03-05 16:32:00,
2013-03-05 10:42:00,25.0,24.0,-100.00,NE,40,4.0,9.0,97,-99.99,,,-99.99,,2013-03-05 16:42:00,
2013-03-05 10:52:00,25.0,24.0,-100.00,NE,40,4.0,9.0,97,-99.99,,,-99.99,,2013-03-05 16:52:00,
2013-03-05 11:01:00,25.0,24.0,-100.00,NE,40,4.0,9.0,97,-99.99,,,-99.99,,2013-03-05 17:01:00,
2013-03-05 11:22:00,27.0,26.0,-100.00,NNE,30,2.0,7.0,95,-99.99,,,-99.99,,2013-03-05 17:22:00,
2013-03-05 11:32:00,27.0,26.0,-100.00,NNE,30,2.0,7.0,95,-99.99,,,-99.99,,2013-03-05 17:32:00,
2013-03-05 11:42:00,27.0,26.0,-100.00,NNE,30,2.0,7.0,95,-99.99,,,-99.99,,2013-03-05 17:42:00,
2013-03-05 11:52:00,27.0,26.0,-100.00,NNE,30,2.0,7.0,95,-99.99,,,-99.99,,2013-03-05 17:52:00,
2013-03-05 12:01:00,27.0,26.0,-100.00,NNE,30,2.0,7.0,95,-99.99,,,-99.99,,2013-03-05 18:01:00,
2013-03-05 12:22:00,28.0,26.0,-100.00,NNE,30,6.0,11.0,91,-99.99,,,-99.99,,2013-03-05 18:22:00,
2013-03-05 12:32:00,28.0,26.0,-100.00,NNE,30,6.0,11.0,91,-99.99,,,-99.99,,2013-03-05 18:32:00,
2013-03-05 12:42:00,28.0,26.0,-100.00,NNE,30,6.0,11.0,91,-99.99,,,-99.99,,2013-03-05 18:42:00,
2013-03-05 12:53:00,28.0,26.0,-100.00,NNE,30,6.0,11.0,91,-99.99,,,-99.99,,2013-03-05 18:53:00,
2013-03-05 13:01:00,28.0,26.0,-100.00,NNE,30,6.0,11.0,91,-99.99,,,-99.99,,2013-03-05 19:01:00,
2013-03-05 13:22:00,28.0,26.0,-100.00,NNE,20,5.0,11.0,90,-99.99,,,-99.99,,2013-03-05 19:22:00,
2013-03-05 13:32:00,28.0,26.0,-100.00,NNE,20,5.0,11.0,90,-99.99,,,-99.99,,2013-03-05 19:32:00,
2013-03-05 13:42:00,28.0,26.0,-100.00,NNE,20,5.0,11.0,90,-99.99,,,-99.99,,2013-03-05 19:42:00,
2013-03-05 13:52:00,28.0,26.0,-100.00,NNE,20,5.0,11.0,90,-99.99,,,-99.99,,2013-03-05 19:52:00,
2013-03-05 14:01:00,28.0,26.0,-100.00,NNE,20,5.0,11.0,90,-99.99,,,-99.99,,2013-03-05 20:01:00,
2013-03-05 14:02:00,31.0,27.0,-100.00,NNE,30,3.0,12.0,87,-99.99,,,-99.99,,2013-03-05 20:02:00,
2013-03-05 14:22:00,31.0,27.0,-100.00,NNE,30,3.0,12.0,87,-99.99,,,-99.99,,2013-03-05 20:22:00,
2013-03-05 14:32:00,31.0,27.0,-100.00,NNE,30,3.0,12.0,87,-99.99,,,-99.99,,2013-03-05 20:32:00,
2013-03-05 14:42:00,31.0,27.0,-100.00,NNE,30,3.0,12.0,87,-99.99,,,-99.99,,2013-03-05 20:42:00,
2013-03-05 14:52:00,31.0,27.0,-100.00,NNE,30,3.0,12.0,87,-99.99,,,-99.99,,2013-03-05 20:52:00,
2013-03-05 15:22:00,30.0,25.0,-100.00,NNE,25,6.0,17.0,84,-99.99,,,-99.99,,2013-03-05 21:22:00,
2013-03-05 15:32:00,30.0,25.0,-100.00,NNE,25,6.0,17.0,84,-99.99,,,-99.99,,2013-03-05 21:32:00,
2013-03-05 15:42:00,30.0,25.0,-100.00,NNE,25,6.0,17.0,84,-99.99,,,-99.99,,2013-03-05 21:42:00,
2013-03-05 15:52:00,30.0,25.0,-100.00,NNE,25,6.0,17.0,84,-99.99,,,-99.99,,2013-03-05 21:52:00,
2013-03-05 16:01:00,30.0,25.0,-100.00,NNE,25,6.0,17.0,84,-99.99,,,-99.99,,2013-03-05 22:01:00,
2013-03-05 16:22:00,29.0,26.0,-100.00,NNE,15,4.0,13.0,87,-99.99,,,-99.99,,2013-03-05 22:22:00,
2013-03-05 16:32:00,29.0,26.0,-100.00,NNE,15,4.0,13.0,87,-99.99,,,-99.99,,2013-03-05 22:32:00,
2013-03-05 16:42:00,29.0,26.0,-100.00,NNE,15,4.0,13.0,87,-99.99,,,-99.99,,2013-03-05 22:42:00,
2013-03-05 16:52:00,29.0,26.0,-100.00,NNE,15,4.0,13.0,87,-99.99,,,-99.99,,2013-03-05 22:52:00,
2013-03-05 17:01:00,29.0,26.0,-100.00,NNE,15,4.0,13.0,87,-99.99,,,-99.99,,2013-03-05 23:01:00,
2013-03-05 17:22:00,28.0,25.0,-100.00,NNE,20,6.0,14.0,89,-99.99,,,-99.99,,2013-03-05 23:22:00,
2013-03-05 17:32:00,28.0,25.0,-100.00,NNE,20,6.0,14.0,89,-99.99,,,-99.99,,2013-03-05 23:32:00,
2013-03-05 17:42:00,28.0,25.0,-100.00,NNE,20,6.0,14.0,89,-99.99,,,-99.99,,2013-03-05 23:42:00,
2013-03-05 17:53:00,28.0,25.0,-100.00,NNE,20,6.0,14.0,89,-99.99,,,-99.99,,2013-03-05 23:53:00,
2013-03-05 18:01:00,28.0,25.0,-100.00,NNE,20,6.0,14.0,89,-99.99,,,-99.99,,2013-03-06 00:01:00,
2013-03-05 18:22:00,26.0,24.0,-100.00,North,5,2.0,6.0,91,-99.99,,,-99.99,,2013-03-06 00:22:00,
2013-03-05 18:32:00,26.0,24.0,-100.00,North,5,2.0,6.0,91,-99.99,,,-99.99,,2013-03-06 00:32:00,
2013-03-05 18:42:00,26.0,24.0,-100.00,North,5,2.0,6.0,91,-99.99,,,-99.99,,2013-03-06 00:42:00,
2013-03-05 18:52:00,26.0,24.0,-100.00,North,5,2.0,6.0,91,-99.99,,,-99.99,,2013-03-06 00:52:00,
2013-03-05 19:01:00,26.0,24.0,-100.00,North,5,2.0,6.0,91,-99.99,,,-99.99,,2013-03-06 01:01:00,
2013-03-05 19:22:00,25.0,23.0,-100.00,NW,325,2.0,7.0,94,-99.99,,,-99.99,,2013-03-06 01:22:00,
2013-03-05 19:32:00,25.0,23.0,-100.00,NW,325,2.0,7.0,94,-99.99,,,-99.99,,2013-03-06 01:32:00,
2013-03-05 19:42:00,25.0,23.0,-100.00,NW,325,2.0,7.0,94,-99.99,,,-99.99,,2013-03-06 01:42:00,
2013-03-05 19:52:00,25.0,23.0,-100.00,NW,325,2.0,7.0,94,-99.99,,,-99.99,,2013-03-06 01:52:00,
2013-03-05 20:01:00,25.0,23.0,-100.00,NW,325,2.0,7.0,94,-99.99,,,-99.99,,2013-03-06 02:01:00,
2013-03-05 20:22:00,24.0,23.0,-100.00,NW,315,3.0,6.0,96,-99.99,,,-99.99,,2013-03-06 02:22:00,
2013-03-05 20:32:00,24.0,23.0,-100.00,NW,315,3.0,6.0,96,-99.99,,,-99.99,,2013-03-06 02:32:00,
2013-03-05 20:42:00,24.0,23.0,-100.00,NW,315,3.0,6.0,96,-99.99,,,-99.99,,2013-03-06 02:42:00,
2013-03-05 20:52:00,24.0,23.0,-100.00,NW,315,3.0,6.0,96,-99.99,,,-99.99,,2013-03-06 02:52:00,
2013-03-05 21:01:00,24.0,23.0,-100.00,NW,315,3.0,6.0,96,-99.99,,,-99.99,,2013-03-06 03:01:00,
2013-03-05 21:02:00,23.0,23.0,-100.00,NNW,330,4.0,7.0,97,-99.99,,,-99.99,,2013-03-06 03:02:00,
2013-03-05 21:22:00,23.0,23.0,-100.00,NNW,330,4.0,7.0,97,-99.99,,,-99.99,,2013-03-06 03:22:00,
2013-03-05 21:32:00,23.0,23.0,-100.00,NNW,330,4.0,7.0,97,-99.99,,,-99.99,,2013-03-06 03:32:00,
2013-03-05 21:42:00,23.0,23.0,-100.00,NNW,330,4.0,7.0,97,-99.99,,,-99.99,,2013-03-06 03:42:00,
2013-03-05 21:52:00,23.0,23.0,-100.00,NNW,330,4.0,7.0,97,-99.99,,,-99.99,,2013-03-06 03:52:00,
2013-03-05 22:22:00,25.0,24.0,-100.00,NNW,340,4.0,12.0,95,-99.99,,,-99.99,,2013-03-06 04:22:00,
2013-03-05 22:32:00,25.0,24.0,-100.00,NNW,340,4.0,12.0,95,-99.99,,,-99.99,,2013-03-06 04:32:00,
2013-03-05 22:42:00,25.0,24.0,-100.00,NNW,340,4.0,12.0,95,-99.99,,,-99.99,,2013-03-06 04:42:00,
2013-03-05 22:52:00,25.0,24.0,-100.00,NNW,340,4.0,12.0,95,-99.99,,,-99.99,,2013-03-06 04:52:00,
2013-03-05 23:01:00,25.0,24.0,-100.00,NNW,340,4.0,12.0,95,-99.99,,,-99.99,,2013-03-06 05:01:00,
2013-03-05 23:02:00,25.0,23.0,-100.00,NNW,345,3.0,12.0,94,-99.99,,,-99.99,,2013-03-06 05:02:00,
2013-03-05 23:23:00,25.0,23.0,-100.00,NNW,345,3.0,12.0,94,-99.99,,,-99.99,,2013-03-06 05:23:00,
2013-03-05 23:32:00,25.0,23.0,-100.00,NNW,345,3.0,12.0,94,-99.99,,,-99.99,,2013-03-06 05:32:00,
2013-03-05 23:42:00,25.0,23.0,-100.00,NNW,345,3.0,12.0,94,-99.99,,,-99.99,,2013-03-06 05:42:00,
2013-03-05 23:52:00,25.0,23.0,-100.00,NNW,345,3.0,12.0,94,-99.99,,,-99.99,,2013-03-06 05:52:00,